Location: *
(13.2257°S, 48.7193°W)
Time: 10:21:11
(UTC+00:00)

Meteor 2-8 Rocket - Pass Details

Date: 13 February 2026
Orbit: 936 x 958 km, 82.5° (Epoch: 11 March)

Event Time Altitude Azimuth Distance (km) Brightness Sun altitude
Rises 07:17:21 0° 188° (S) 3,615 7.7 -27.5°
Reaches altitude 10° 07:19:50 10° 189° (S) 2,669 6.9 -27.0°
Maximum altitude 07:25:55 74° 273° (W) 986 4.3 -25.6°
Enters shadow 07:28:18 39° 348° (NNW) 1,386 5.0 -25.1°
